1st Responders/1st Detectors/Storm Spotters Weather Summary for Jackson County, KY

Forecast Maps


Reg. NEXRAD Animation


National Fire Danger: Day 1 & 2 Map

Current NWS Watch/Warnings

SPC Convective Day 1 Outlook


Day 2 Outlook

(Click images to enlarge|Page will refresh every 5 minutes)
UK Ag. Weather Center Desktop Severe Weather Service[HERE]
Jackson County, KY Hazardous Weather Outlook Webcast
(9 AM to 9 PM Mon-Fri)
[Fast]
[Dial-up]


UKAWC 1st Detectors/1st Responders Precision Weather Forecast For JACKSON County, Kentucky
(based on the NWS County Digital Forecast)

ISSUED AT 22:00 UTC ON FRIDAY NOV 22 2019
DAY FRIDAY SATURDAY
EDT 3HR 7P 8P 9P 10P 11P MIDN 1A 2A 3A 4A 5A 6A 7A 8A 9A 10A 11A NOON 1P 2P 3P 4P 5P 6P 7P
MAX/MIN 50° -- -- -- -- -- -- -- -- -- -- -- -- 38° -- -- -- -- -- -- -- -- -- -- 56°
TEMP 43° 43° 41° 40° 40° 40° 40° 38° 38° 40° 40° 40° 40° 43° 43° 45° 47° 49° 52° 52° 54° 56° 54° 50° 47°
SKY COVER 81% 84% 82% 82% 82% 83% 84% 84% 87% 89% 93% 96% 99% 100% 100% 100% 100% 100% 100% 100% 100% 100% 100% 100% 100%
Clouds
DEW PT 40° 40° 40° 40° 38° 38° 38° 38° 38° 38° 38° 40° 40° 40° 43° 45° 47° 49° 49° 50° 52° 52° 50° 47° 47°
RH 92% 88% 92% 96% 92% 96% 92% 95% 100% 92% 96% 96% 100% 92% 96% 96% 95% 95% 92% 92% 89% 86% 86% 88% 100%
POP 12HR -- 100% -- -- -- -- -- -- -- -- -- -- -- 36% -- -- -- -- -- -- -- -- -- -- --
RAIN/SNOW (liq.equ) -- 0.01in -- -- -- -- -- 0.00in -- -- -- -- -- 0.02in -- -- -- -- -- 0.16in -- -- -- -- --
SNOWFALL -- 0in -- -- -- -- -- 0in -- -- -- -- -- 0in -- -- -- -- -- 0in -- -- -- -- --
WIND SPEED(MPH) 2 5 5 5 5 5 5 5 5 5 5 2 2 2 2 5 5 6 6 6 6 7 9 10 9
WIND Gust(MPH) 10 10 13 14 15 15 15 14 14 10 10 9 9 9 8 9 10 13 14 15 17 18 23 22 22
WIND DIR NE NE NE NE NE E E E E E E E E E E E SE SE SE S SW SW SW W W
DEW Hvy Dew Mod Dew Mod Dew Mod Dew Mod Dew Mod Dew Mod Dew Mod Dew Mod Dew Mod Dew -- -- -- -- -- -- -- -- -- -- -- -- -- -- --
HeatIndex 41 40 39 38 38 36 36 35 35 36 36 38 38 41 42 45 47 49 52 52 54 56 54 50 47
Rain Showers -- -- -- -- -- -- -- -- Slight Chance Slight Chance Chance Chance Chance Chance Chance Likely Definite Definite Definite Definite Definite Definite Likely Likely Likely
WIND CHILL -- 40° 38° 37° 37° 37° 37° 35° 35° 37° 37° -- -- -- -- 43° -- -- -- -- -- -- -- -- --
SPRAY COND
DRY COND
LIVESTOCK COLDSTRESS



DAY SUNDAY MONDAY TUESDAY WEDNESDAY THURSDAY FRIDAY
EDT 6HR 8P 9P 10P 11P MIDN 1A 2A 3A 4A 5A 6A 8A 11A 2P 5P 8P 11P 2A 5A 8A 11A 2P 5P 8P 2A 8A 2P 8P 2A 8A 2P 8P 2A 8A 2P 8P 2A 8A 2P 8P
MAX/MIN -- -- -- -- -- -- -- -- -- -- -- 32° -- -- 49° -- -- -- -- 31° -- -- 56° -- -- 36° 58° -- -- 43° 54° -- -- 36° 52° -- -- 36° 54° --
TEMP 43° 41° 40° 38° 38° 36° 36° 34° 34° 34° 34° 32° 38° 45° 49° 40° 36° 34° 34° 32° 43° 52° 54° 45° 38° 38° 56° 52° 45° 43° 50° 47° 40° 36° 49° 45° 38° 36° 50° 47°
SKY COVER 100% 100% 100% 100% 100% 100% 100% 98% 96% 93% 81% 58% 58% 46% 31% 32% 37% 36% 40% 31% 28% 20% 23% 13% 22% 44% 63% 87% 89% 80% 51% 54% 61% 62% 66% 77% 83% 86% 85% 85%
Clouds
DEW PT 43° 41° 40° 38° 36° 36° 36° 34° 34° 32° 32° 32° 32° 32° 31° 34° 34° 32° 32° 32° 36° 36° 36° 38° 36° 36° 40° 43° 45° 43° 38° 38° 36° 36° 36° 36° 34° 34° 40° 43°
RH 99% 100% 95% 100% 95% 96% 100% 99% 96% 91% 96% 99% 81% 59% 51% 75% 91% 92% 96% 99% 79% 54% 50% 76% 92% 95% 54% 74% 99% 99% 63% 70% 89% 99% 60% 73% 85% 92% 66% 85%
POP 12HR 97% -- -- -- -- -- -- -- -- -- -- 49% -- -- -- 5% -- -- -- 2% -- -- -- 3% -- 10% -- 37% -- 51% -- 40% -- 14% -- 13% -- 30% -- 40%
RAIN/SNOW (liq.equ) 0.25in -- -- -- -- -- 0.01in -- -- -- -- 0.00in -- 0.00in -- 0.00in -- 0.00in -- 0.00in -- 0.00in -- 0.00in -- -- -- -- -- -- -- -- -- -- -- -- -- -- -- --
SNOWFALL 0in -- -- -- -- -- 0in -- -- -- -- 0in -- 0in -- 0in -- 0in -- 0in -- 0in -- 0in -- -- -- -- -- -- -- -- -- -- -- -- -- -- -- --
WIND SPEED(MPH) 9 8 7 7 8 8 8 7 7 7 6 5 7 7 7 2 2 1 2 2 6 7 6 2 2 5 9 10 14 10 7 7 7 7 6 2 1 1 5 1
WIND DIR W W W W W W W W W W W W W W W SW SW SW SW SW SW SW SW SW SW S S S SW NW NW N NE NE NE NE E E W S
HeatIndex 38 36 35 33 31 30 29 28 28 29 28 28 32 45 49 38 33 34 31 29 39 52 54 45 36 34 56 52 45 36 50 47 35 30 49 43 38 36 50 47
Rain Showers Chance Chance Chance Chance Chance Chance Chance Chance Slight Chance Slight Chance -- -- -- -- -- -- -- -- -- -- -- -- -- -- -- -- Slight Chance Chance Chance Chance Chance -- -- -- -- -- Chance Chance Chance Chance
WIND CHILL 38° 36° 35° 33° 32° 30° 30° 28° 28° 28° 29° 28° 33° 41° -- -- -- -- -- -- 39° -- -- -- -- 35° -- -- 39° 37° -- -- 35° 30° -- -- -- -- -- --
SPRAY COND
DRY COND
LIVESTOCK COLDSTRESS

Click on individual weather variable above in left-hand column (ie., TEMP, RH, QPF 12HR) to view state forecast maps






NWS 48 Hr. Forecast Maps,

Regional Hourly Observations For JACKSON County, Kentucky
Issued at 500 PM EST FRI NOV 22 2019
SOUTHEAST KENTUCKY
  
CITY           SKY/WX    TMP DP  RH WIND       PRES   REMARKS
JACKSON        CLOUDY    44  43  96 NE3       30.07R                  
LONDON         CLOUDY    47  43  86 NE6       30.05F                  
SOMERSET       CLOUDY    45  41  87 NE5       30.08S                  
MIDDLESBORO    CLOUDY    51  51 100 NE6       30.04F                  
MONTICELLO     CLOUDY    47  45  93 N16       30.07F                  


Current NOWCAST not available:
Nowcasts are not issued routinely during fair weather. Only when
precipitation or other significant weather is occuring in this county will these
forecasts be issued. Currently, there is no short term forecast in effect.


Fire Weather Forecast For JACKSON County, KY
Provided by the National Weather Service:

Issued at: Fri Nov 22 17:05:01 EST 2019

438 PM EST Fri Nov 22 2019

                      Tonight      Sat          Sat Night    Sun          

Cloud Cover           Mcldy        Cloudy       Cloudy       Pcldy        
Chance precip (%)     50           100          50           0            
Precip type           showers      tstms        showers      None         
Temp (24H TREND)      38-48 (+1)   54-59 (+8)   32-38        46-51        
Rh % (24H TREND)      93-100 (+2)  77-84 (+22)  89-100       45-52        
20ftwnd-AM(mph)                    SE 3-7 G22                W 3-7 G16    
20ftwnd-PM(mph)       NE 2-6 G14   SW 6-10 G25  W 6-10 G21   W 3-7 G17    
Precip duration       1            6            1                         
Precip begin                       Continuing                             
Precip end                         Continuing                             
Precip amount         0.04         0.48         0.03         0.00         
LAL                   1            2            1            1            
Haines Index (MID)                 3                         2            
Mixing hgt(ft-AGL)                 700                       2000         
Transport wnd (mph)                SW 12                     SW  9        
Vent rate (kt-ft)                  8152                      15417        
ADI Early             4 Very Poor  5 Very Poor  22 Fair      25 Fair      
ADI Late              5 Very Poor  10 Poor      25 Fair      22 Fair      
Max LVORI Early       7            8            5            4            
Max LVORI Late        7            6            5            3            

REMARKS...RANGES OF MIN T EXCEEDING 8 DEGREES & RANGES OF MAX RH        
EXCEEDING 10% INDICATE THE LIKELIHOOD OF THERMAL BELTS. ADI IS        
ATMOSPHERIC DISPERSION INDEX BY LAVDAS. DISPERSION INDEX IS        
MAGNITUDE OF VENT RATE DIVIDED BY 1000.


SPC's Fire Weather Web Tool (Excellent!), SPC's Fire Weather Outlooks, NWS Fire Weather WEB, Fire Danger Class Map,
Keetch-Byram Drought Index, ROMAN Web, Haines Index ,
WFAS's 10-hr Dead Fuel Moist., WFAS's 100-hr Dead Fuel Moist., Probablity of Ignition, Visual blackness Map, Palmer Drought Index, HPC's Rainfall Forecast Maps


Hazardous Weather Outlook For JACKSON County, Kentucky
336 PM EST Fri Nov 22 2019

 DAY ONE  Tonight.

No hazardous weather is expected at this time.

 DAYS TWO THROUGH SEVEN  Saturday through Thursday.

Isolated thunderstorms are possible Saturday afternoon for areas
mainly along and south of the Hal Rogers Parkway.

 SPOTTER INFORMATION STATEMENT  

Spotter activation is not anticipated.

Latest JACKSON County, Kentucky Watches, Warnings and Advisories.
Additional Drought Info.: UKAWC Drought Page, Kentucky Drought Watch


7-Day Forecast For JACKSON County, KY

TONIGHT
Mostly cloudy. A slight chance of rain showers late. A chance of rain showers near dawn. Lows in the lower 40s. Light winds. Chance of rain 30 percent.

SATURDAY
Showers. Highs in the upper 50s. Light winds becoming southwest around 10 mph in the afternoon. Chance of rain near 100 percent.

SATURDAY NIGHT
Cloudy. A chance of rain showers in the evening, then a slight chance of rain showers near dawn. Lows in the mid 30s. West winds around 10 mph in the evening becoming light. Chance of rain 50 percent.

SUNDAY
Mostly sunny. Highs in the upper 40s. Light winds.

SUNDAY NIGHT
Partly cloudy. Lows in the lower 30s. Light winds.

MONDAY
Sunny. Highs in the upper 50s.

MONDAY NIGHT
Mostly clear. Lows in the upper 30s.

TUESDAY
Partly sunny with a 40 percent chance of rain showers. Highs around 60.

TUESDAY NIGHT
Cloudy with a 50 percent chance of showers. Lows in the mid 40s.

WEDNESDAY
Partly sunny with a 40 percent chance of showers. Highs in the mid 50s.

WEDNESDAY NIGHT
Mostly cloudy. Lows in the upper 30s.

THANKSGIVING DAY
Partly sunny. Highs in the lower 50s.

THURSDAY NIGHT
Mostly cloudy with a 30 percent chance of rain showers. Lows in the upper 30s.

FRIDAY
Mostly cloudy with a 40 percent chance of rain showers. Highs in the mid 50s.

Ag Weather Center, Department of Biosystems & Agricultural Engineering, University of Kentucky